Find SPHEREX

NORAD ID: 63182 Int'l Des: 2025-047 Owner: JPL Country: US operational
LEOCIRCULARRETROGRADESSO

リアルタイム位置

3D地球を読み込み中...

SPHEREXについて

説明を読み込み中...

次回通過

Passes for default location (London). Set your location on the main map for personalized predictions.

高度履歴

Loading altitude history...

軌道要素

1 63182U 25047E 26105.93678526 .00000552 00000-0 91683-4 0 9991
2 63182 97.9583 291.9155 0011165 39.1893 321.0122 14.73944546 58878
Epoch: Apr 15, 2026 • Age: 11 hours

現在のステータス

高度 676.9 km
速度 7.51 km/s
衛星直下点 -53.79°S, 117.1°E
打ち上げ日 Mar 12, 2025
運用期間 1 years
タイプ other

技術仕様

分類 Payload
質量 502.00 kg
乾燥質量 502.00 kg
総質量 502.00 kg
長さ 2.60 m
直径 3.20 m
スパン 3.20 m
形状 Cyl-Cone+2 pan
製造者 BAEB
バスタイプ SphereX
フェーズステータス In Orbit
所有者/国 JPL/US

Most Searched